Location: Pedholt
(56.0260°N, 10.2097°E)
Time: 00:57:56
(UTC+00:00)

A-11 Canister half - Pass Details

Date: 03 August 2021
Orbit: 1514 x 1685 km, 47.2° (Epoch: 16 September)

Event Time Altitude Azimuth Distance (km) Brightness Sun altitude
Rises 22:16:30 0° 283° (WNW) 4,907 12.1 -15.3°
Reaches altitude 10° 22:20:30 10° 270° (W) 3,934 11.3 -15.5°
Maximum altitude 22:27:42 23° 224° (SW) 3,042 10.3 -15.7°
Enters shadow 22:32:18 17° 191° (S) 3,436 10.3 -15.9°
Drops below altitude 10° 22:34:57 10° 177° (S) 3,941 - -16.0°
Sets 22:38:59 0° 164° (SSE) 4,918 - -16.1°
